Time,TemperatureF,DewpointF,PressureIn,WindDirection,WindDirectionDegrees,WindSpeedMPH,WindSpeedGustMPH,Humidity,HourlyPrecipIn,Conditions,Clouds,dailyrainin,SoftwareType,DateUTC
2013-02-17 00:15:00,23.1,6.0,29.73,North,349,6.0,10.0,49,0.00,,,0.00,weatherlink.com 1.10,2013-02-17 05:15:00,
2013-02-17 00:29:00,22.9,7.0,29.71,NE,44,13.0,13.0,50,0.00,,,0.00,weatherlink.com 1.10,2013-02-17 05:29:00,
2013-02-17 00:44:00,22.7,7.0,29.71,WNW,290,4.0,13.0,51,0.00,,,0.00,weatherlink.com 1.10,2013-02-17 05:44:00,
2013-02-17 01:00:00,22.5,6.0,29.70,West,273,4.0,12.0,49,0.00,,,0.00,weatherlink.com 1.10,2013-02-17 06:00:00,
2013-02-17 01:14:00,22.3,7.0,29.70,WSW,242,4.0,12.0,52,0.00,,,0.00,weatherlink.com 1.10,2013-02-17 06:14:00,
2013-02-17 01:29:00,22.1,4.0,29.70,West,278,1.0,14.0,46,0.00,,,0.00,weatherlink.com 1.10,2013-02-17 06:29:00,
2013-02-17 01:45:00,21.7,4.0,29.71,NNW,330,4.0,13.0,47,0.00,,,0.00,weatherlink.com 1.10,2013-02-17 06:45:00,
2013-02-17 02:00:00,21.5,4.0,29.69,NNW,335,3.0,15.0,47,0.00,,,0.00,weatherlink.com 1.10,2013-02-17 07:00:00,
2013-02-17 02:15:00,21.2,5.0,29.69,NW,304,3.0,11.0,50,0.00,,,0.00,weatherlink.com 1.10,2013-02-17 07:15:00,
2013-02-17 02:30:00,20.9,5.0,29.67,West,274,4.0,11.0,50,0.00,,,0.00,weatherlink.com 1.10,2013-02-17 07:30:00,
2013-02-17 02:45:00,20.7,5.0,29.68,WSW,257,15.0,16.0,51,0.00,,,0.00,weatherlink.com 1.10,2013-02-17 07:45:00,
2013-02-17 03:00:00,20.6,5.0,29.68,WNW,287,11.0,15.0,50,0.00,,,0.00,weatherlink.com 1.10,2013-02-17 08:00:00,
2013-02-17 03:15:00,20.5,4.0,29.66,WNW,288,2.0,10.0,50,0.00,,,0.00,weatherlink.com 1.10,2013-02-17 08:15:00,
2013-02-17 03:30:00,20.4,5.0,29.65,WSW,250,4.0,17.0,51,0.00,,,0.00,weatherlink.com 1.10,2013-02-17 08:30:00,
2013-02-17 03:45:00,20.2,5.0,29.63,NW,313,4.0,13.0,52,0.00,,,0.00,weatherlink.com 1.10,2013-02-17 08:45:00,
2013-02-17 04:00:00,19.8,5.0,29.64,NNW,330,5.0,14.0,54,0.00,,,0.00,weatherlink.com 1.10,2013-02-17 09:00:00,
2013-02-17 04:15:00,19.6,7.0,29.64,NNE,30,7.0,11.0,57,0.00,,,0.00,weatherlink.com 1.10,2013-02-17 09:15:00,
2013-02-17 04:30:00,19.5,5.0,29.63,West,267,6.0,16.0,53,0.00,,,0.00,weatherlink.com 1.10,2013-02-17 09:30:00,
2013-02-17 04:45:00,19.4,4.0,29.63,NW,311,2.0,14.0,52,0.00,,,0.00,weatherlink.com 1.10,2013-02-17 09:45:00,
2013-02-17 05:00:00,18.9,5.0,29.62,NNE,15,7.0,15.0,56,0.00,,,0.00,weatherlink.com 1.10,2013-02-17 10:00:00,
2013-02-17 05:15:00,18.0,8.0,29.63,NW,307,9.0,15.0,65,0.00,,,0.00,weatherlink.com 1.10,2013-02-17 10:15:00,
2013-02-17 05:30:00,17.2,10.0,29.61,WNW,287,2.0,9.0,72,0.00,,,0.00,weatherlink.com 1.10,2013-02-17 10:30:00,
2013-02-17 05:45:00,16.4,10.0,29.59,WNW,302,3.0,10.0,76,0.00,,,0.00,weatherlink.com 1.10,2013-02-17 10:45:00,
2013-02-17 06:00:00,16.1,10.0,29.59,WNW,302,8.0,15.0,76,0.00,,,0.00,weatherlink.com 1.10,2013-02-17 11:00:00,
2013-02-17 06:16:00,15.7,10.0,29.57,North,349,2.0,14.0,79,0.00,,,0.00,weatherlink.com 1.10,2013-02-17 11:16:00,
2013-02-17 06:30:00,15.4,10.0,29.56,WNW,285,12.0,16.0,79,0.00,,,0.00,weatherlink.com 1.10,2013-02-17 11:30:00,
2013-02-17 06:45:00,15.1,9.0,29.54,West,273,6.0,17.0,78,0.00,,,0.00,weatherlink.com 1.10,2013-02-17 11:45:00,
2013-02-17 07:01:00,15.0,9.0,29.53,NW,307,9.0,18.0,77,0.00,,,0.00,weatherlink.com 1.10,2013-02-17 12:01:00,
2013-02-17 07:16:00,14.9,9.0,29.53,WNW,293,11.0,14.0,77,0.00,,,0.00,weatherlink.com 1.10,2013-02-17 12:16:00,
2013-02-17 07:31:00,14.9,9.0,29.53,NW,309,6.0,16.0,77,0.00,,,0.00,weatherlink.com 1.10,2013-02-17 12:31:00,
2013-02-17 07:46:00,14.9,9.0,29.52,West,266,9.0,21.0,76,0.00,,,0.00,weatherlink.com 1.10,2013-02-17 12:46:00,
2013-02-17 08:01:00,15.1,8.0,29.51,NE,44,4.0,16.0,74,0.00,,,0.00,weatherlink.com 1.10,2013-02-17 13:01:00,
2013-02-17 08:16:00,15.2,8.0,29.50,West,271,6.0,17.0,73,0.00,,,0.00,weatherlink.com 1.10,2013-02-17 13:16:00,
2013-02-17 08:31:00,14.8,8.0,29.49,NW,315,14.0,18.0,75,0.00,,,0.00,weatherlink.com 1.10,2013-02-17 13:31:00,
2013-02-17 08:46:00,14.7,8.0,29.48,NNW,342,6.0,25.0,75,0.00,,,0.00,weatherlink.com 1.10,2013-02-17 13:46:00,
2013-02-17 09:01:00,14.8,9.0,29.47,West,276,4.0,21.0,76,0.00,,,0.00,weatherlink.com 1.10,2013-02-17 14:01:00,
2013-02-17 09:16:00,14.9,8.0,29.46,West,281,8.0,18.0,74,0.00,,,0.00,weatherlink.com 1.10,2013-02-17 14:16:00,
2013-02-17 09:31:00,15.3,7.0,29.46,WNW,295,14.0,20.0,71,0.00,,,0.00,weatherlink.com 1.10,2013-02-17 14:31:00,
2013-02-17 09:46:00,15.7,7.0,29.45,WNW,285,4.0,18.0,69,0.00,,,0.00,weatherlink.com 1.10,2013-02-17 14:46:00,
2013-02-17 10:01:00,15.9,7.0,29.44,WSW,246,6.0,16.0,67,0.00,,,0.00,weatherlink.com 1.10,2013-02-17 15:01:00,
2013-02-17 10:31:00,16.6,7.0,29.43,WNW,299,9.0,22.0,65,0.00,,,0.00,weatherlink.com 1.10,2013-02-17 15:31:00,
2013-02-17 10:46:00,17.0,7.0,29.44,WNW,285,5.0,18.0,64,0.00,,,0.00,weatherlink.com 1.10,2013-02-17 15:46:00,
2013-02-17 11:01:00,17.3,7.0,29.43,NW,320,8.0,22.0,63,0.00,,,0.00,weatherlink.com 1.10,2013-02-17 16:01:00,
2013-02-17 11:16:00,17.4,6.0,29.43,West,276,7.0,24.0,60,0.00,,,0.00,weatherlink.com 1.10,2013-02-17 16:16:00,
2013-02-17 11:31:00,17.7,5.0,29.43,WNW,301,19.0,22.0,59,0.00,,,0.00,weatherlink.com 1.10,2013-02-17 16:31:00,
2013-02-17 11:46:00,17.8,6.0,29.43,WSW,250,20.0,21.0,59,0.00,,,0.00,weatherlink.com 1.10,2013-02-17 16:46:00,
2013-02-17 12:01:00,18.5,6.0,29.42,West,271,6.0,18.0,58,0.00,,,0.00,weatherlink.com 1.10,2013-02-17 17:01:00,
2013-02-17 12:17:00,18.4,5.0,29.43,WNW,301,12.0,21.0,56,0.00,,,0.00,weatherlink.com 1.10,2013-02-17 17:17:00,
2013-02-17 12:31:00,18.2,4.0,29.43,WSW,240,16.0,28.0,54,0.00,,,0.00,weatherlink.com 1.10,2013-02-17 17:31:00,
2013-02-17 12:46:00,18.8,3.0,29.43,SW,233,13.0,20.0,51,0.00,,,0.00,weatherlink.com 1.10,2013-02-17 17:46:00,
2013-02-17 13:02:00,19.1,4.0,29.42,West,269,16.0,22.0,51,0.00,,,0.00,weatherlink.com 1.10,2013-02-17 18:02:00,
2013-02-17 13:17:00,19.2,4.0,29.42,West,262,6.0,34.0,51,0.00,,,0.00,weatherlink.com 1.10,2013-02-17 18:17:00,
2013-02-17 13:32:00,18.6,4.0,29.43,NNE,29,3.0,18.0,53,0.00,,,0.00,weatherlink.com 1.10,2013-02-17 18:32:00,
2013-02-17 13:47:00,17.9,3.0,29.43,WSW,257,11.0,26.0,53,0.00,,,0.00,weatherlink.com 1.10,2013-02-17 18:47:00,
2013-02-17 14:01:00,17.7,3.0,29.44,West,265,14.0,21.0,53,0.00,,,0.00,weatherlink.com 1.10,2013-02-17 19:01:00,
2013-02-17 14:17:00,17.4,3.0,29.44,WNW,300,17.0,21.0,53,0.00,,,0.00,weatherlink.com 1.10,2013-02-17 19:17:00,
2013-02-17 14:31:00,17.4,3.0,29.44,WSW,250,16.0,20.0,53,0.00,,,0.00,weatherlink.com 1.10,2013-02-17 19:31:00,
2013-02-17 14:47:00,17.0,2.0,29.45,West,267,12.0,34.0,52,0.00,,,0.00,weatherlink.com 1.10,2013-02-17 19:47:00,
2013-02-17 15:02:00,17.1,2.0,29.44,NW,320,6.0,23.0,52,0.00,,,0.00,weatherlink.com 1.10,2013-02-17 20:02:00,
2013-02-17 15:17:00,17.2,1.0,29.45,West,260,10.0,26.0,50,0.00,,,0.00,weatherlink.com 1.10,2013-02-17 20:17:00,
2013-02-17 15:32:00,17.1,2.0,29.45,West,274,7.0,29.0,51,0.00,,,0.00,weatherlink.com 1.10,2013-02-17 20:32:00,
2013-02-17 15:47:00,17.0,1.0,29.46,WSW,252,6.0,27.0,50,0.00,,,0.00,weatherlink.com 1.10,2013-02-17 20:47:00,
2013-02-17 16:02:00,16.8,1.0,29.48,West,278,19.0,28.0,50,0.00,,,0.00,weatherlink.com 1.10,2013-02-17 21:02:00,
2013-02-17 16:17:00,16.8,1.0,29.48,West,276,8.0,23.0,50,0.00,,,0.00,weatherlink.com 1.10,2013-02-17 21:17:00,
2013-02-17 16:32:00,16.8,1.0,29.49,WNW,293,8.0,26.0,51,0.00,,,0.00,weatherlink.com 1.10,2013-02-17 21:32:00,
2013-02-17 16:47:00,16.9,1.0,29.50,West,272,22.0,30.0,50,0.00,,,0.00,weatherlink.com 1.10,2013-02-17 21:47:00,
2013-02-17 17:02:00,16.8,1.0,29.51,NNW,327,16.0,26.0,51,0.00,,,0.00,weatherlink.com 1.10,2013-02-17 22:02:00,
2013-02-17 17:17:00,16.8,1.0,29.52,WSW,245,7.0,27.0,50,0.00,,,0.00,weatherlink.com 1.10,2013-02-17 22:17:00,
2013-02-17 17:32:00,16.7,1.0,29.53,West,260,3.0,23.0,51,0.00,,,0.00,weatherlink.com 1.10,2013-02-17 22:32:00,
2013-02-17 17:47:00,16.6,1.0,29.53,WSW,253,17.0,22.0,51,0.00,,,0.00,weatherlink.com 1.10,2013-02-17 22:47:00,
2013-02-17 18:02:00,16.6,2.0,29.54,West,262,7.0,19.0,52,0.00,,,0.00,weatherlink.com 1.10,2013-02-17 23:02:00,
2013-02-17 18:17:00,16.5,2.0,29.53,NW,315,13.0,21.0,52,0.00,,,0.00,weatherlink.com 1.10,2013-02-17 23:17:00,
2013-02-17 18:32:00,16.5,1.0,29.54,WSW,240,19.0,26.0,51,0.00,,,0.00,weatherlink.com 1.10,2013-02-17 23:32:00,
2013-02-17 18:47:00,16.3,2.0,29.55,West,269,11.0,18.0,53,0.00,,,0.00,weatherlink.com 1.10,2013-02-17 23:47:00,
2013-02-17 19:02:00,16.2,2.0,29.55,West,259,13.0,23.0,53,0.00,,,0.00,weatherlink.com 1.10,2013-02-18 00:02:00,
2013-02-17 19:17:00,16.0,2.0,29.54,WNW,302,11.0,22.0,54,0.00,,,0.00,weatherlink.com 1.10,2013-02-18 00:17:00,
2013-02-17 19:32:00,16.0,1.0,29.54,WSW,240,10.0,30.0,52,0.00,,,0.00,weatherlink.com 1.10,2013-02-18 00:32:00,
2013-02-17 19:47:00,15.8,1.0,29.55,WSW,257,16.0,24.0,51,0.00,,,0.00,weatherlink.com 1.10,2013-02-18 00:47:00,
2013-02-17 20:02:00,15.4,-1.0,29.55,West,268,11.0,32.0,49,0.00,,,0.00,weatherlink.com 1.10,2013-02-18 01:02:00,
2013-02-17 20:17:00,15.1,-1.0,29.57,WNW,288,10.0,29.0,50,0.00,,,0.00,weatherlink.com 1.10,2013-02-18 01:17:00,
2013-02-17 20:32:00,14.7,-1.0,29.57,NW,305,11.0,25.0,50,0.00,,,0.00,weatherlink.com 1.10,2013-02-18 01:32:00,
2013-02-17 20:47:00,14.4,-1.0,29.58,WNW,284,14.0,30.0,51,0.00,,,0.00,weatherlink.com 1.10,2013-02-18 01:47:00,
2013-02-17 21:02:00,14.1,-1.0,29.58,WNW,293,6.0,31.0,51,0.00,,,0.00,weatherlink.com 1.10,2013-02-18 02:02:00,
2013-02-17 21:18:00,13.6,-1.0,29.60,WNW,282,4.0,22.0,52,0.00,,,0.00,weatherlink.com 1.10,2013-02-18 02:18:00,
2013-02-17 21:33:00,13.2,-1.0,29.61,WNW,303,4.0,22.0,53,0.00,,,0.00,weatherlink.com 1.10,2013-02-18 02:33:00,
2013-02-17 21:48:00,12.8,-1.0,29.62,NW,307,13.0,23.0,54,0.00,,,0.00,weatherlink.com 1.10,2013-02-18 02:48:00,
2013-02-17 22:03:00,12.5,-1.0,29.63,South,191,2.0,18.0,55,0.00,,,0.00,weatherlink.com 1.10,2013-02-18 03:03:00,
2013-02-17 22:18:00,12.2,-1.0,29.64,WNW,295,11.0,20.0,55,0.00,,,0.00,weatherlink.com 1.10,2013-02-18 03:18:00,
2013-02-17 22:33:00,12.0,-1.0,29.64,North,8,3.0,17.0,56,0.00,,,0.00,weatherlink.com 1.10,2013-02-18 03:33:00,
2013-02-17 22:48:00,11.8,-1.0,29.66,WNW,290,7.0,16.0,56,0.00,,,0.00,weatherlink.com 1.10,2013-02-18 03:48:00,
2013-02-17 23:03:00,11.7,-1.0,29.66,WNW,284,7.0,17.0,57,0.00,,,0.00,weatherlink.com 1.10,2013-02-18 04:03:00,
2013-02-17 23:18:00,11.7,-1.0,29.67,West,262,12.0,20.0,57,0.00,,,0.00,weatherlink.com 1.10,2013-02-18 04:18:00,
2013-02-17 23:33:00,11.5,-1.0,29.68,WSW,248,3.0,23.0,57,0.00,,,0.00,weatherlink.com 1.10,2013-02-18 04:33:00,
2013-02-17 23:49:00,11.3,-1.0,29.70,NW,315,9.0,21.0,57,0.00,,,0.00,weatherlink.com 1.10,2013-02-18 04:49:00,